Theta_e
305 305 306 324 322 323 323 323 321 321 322 322 322 323 324 324 324 324 325 325 326 326 327 327 327 327 327 327 327 327 327 327 326 326 326 325 326 327 328 329 329 330 331 332 332 333 333 334 334 334 333 333 334 333 334 336 335 334 333 333 331 330 329 330 331 333 333 333 334 335 336 337 338 338 339 341 342 343 342 342 343 340 339 341 346
305 305 306 312 323 322 322 320 321 322 322 322 323 323 323 323 324 324 323 324 325 325 326 326 326 326 326 326 326 325 326 326 326 325 325 324 325 327 329 329 329 331 331 331 331 332 332 331 332 332 332 332 333 335 334 334 333 333 332 331 330 329 326 330 330 331 332 332 332 334 334 335 336 337 338 339 339 340 340 342 343 341 338 342 344
306 304 306 312 322 322 321 321 322 322 321 322 322 322 322 322 323 322 322 323 324 324 325 325 325 325 325 325 325 325 325 325 325 324 323 324 325 327 329 328 330 331 330 331 332 332 332 332 333 333 334 334 334 334 334 333 332 331 330 330 331 331 331 331 331 331 331 331 331 332 333 333 334 335 337 337 337 337 338 342 342 342 338 343 344
304 305 306 315 322 321 320 320 321 321 321 322 322 321 321 321 322 322 322 323 324 324 324 325 324 324 324 324 324 324 324 324 323 323 323 324 326 328 328 328 330 331 330 331 331 331 332 332 331 333 334 333 333 333 332 331 331 331 331 331 331 330 331 330 330 330 331 330 330 330 329 327 329 333 335 336 337 338 337 340 342 344 343 344 345
304 304 306 311 315 320 319 320 321 322 321 321 321 320 320 321 321 322 322 323 323 323 323 324 324 324 323 324 324 324 323 323 323 322 323 324 325 327 328 329 329 330 330 331 331 331 329 330 331 333 333 332 331 331 330 330 330 330 331 331 331 331 331 331 329 329 330 330 329 330 324 324 323 331 334 335 336 337 337 339 341 343 343 344 345
303 303 304 307 308 314 320 321 323 322 321 321 321 319 319 321 321 321 321 322 322 323 323 323 323 323 323 323 323 323 323 322 321 322 322 323 325 327 328 329 329 329 330 330 330 329 330 330 331 331 331 331 331 331 329 329 329 330 330 330 330 330 329 328 328 327 328 329 329 325 323 322 323 326 333 334 335 335 336 338 340 343 344 345 344
303 302 304 304 305 313 319 321 322 322 321 321 320 319 320 320 319 319 320 321 322 322 322 322 322 322 322 321 322 322 322 321 321 321 322 323 325 326 327 327 327 328 329 329 329 330 330 330 330 331 330 331 330 330 330 329 329 329 329 329 329 328 327 328 327 327 327 326 320 320 320 322 323 324 332 333 334 336 336 340 343 345 345 345 342
302 303 301 302 304 316 319 320 322 322 321 320 319 319 319 320 318 318 319 321 321 321 321 321 321 321 321 321 321 321 320 321 320 320 320 322 325 326 326 327 327 328 328 328 329 329 330 330 330 330 330 330 329 329 329 328 328 328 329 329 329 329 327 326 327 327 326 323 321 320 320 321 322 323 331 332 334 336 337 339 340 345 344 346 341
301 301 301 302 302 321 319 319 321 321 321 320 320 319 319 319 318 318 318 319 320 320 320 320 320 320 320 321 320 320 320 319 320 319 319 322 325 325 326 326 327 327 327 328 328 329 330 330 330 329 328 329 329 329 328 328 327 329 328 328 327 327 326 325 326 325 324 322 321 320 320 321 321 322 329 333 334 335 337 337 341 340 342 343 342
301 300 301 302 301 322 320 320 320 321 321 321 319 319 318 318 317 317 317 318 319 319 319 319 319 319 319 319 319 319 318 319 319 319 319 321 324 325 325 326 326 326 327 327 329 331 330 329 328 327 327 327 328 328 327 327 327 327 327 327 325 325 325 325 326 325 323 320 321 320 320 327 322 322 327 334 335 336 336 336 338 339 339 341 340
300 300 301 302 303 322 320 320 319 319 321 320 321 320 319 318 317 317 317 318 319 319 318 318 319 319 319 318 318 318 318 318 318 318 318 319 321 324 325 325 326 326 327 327 329 330 327 327 327 326 326 327 327 327 326 326 326 326 325 326 324 324 325 324 325 321 319 319 319 319 322 327 325 323 331 333 334 336 336 337 339 340 341 340 342
300 299 301 303 312 322 320 319 318 318 318 319 320 321 319 318 317 317 316 316 317 318 318 318 318 317 318 317 317 317 318 318 318 317 319 319 319 322 324 325 325 326 326 328 330 329 326 325 325 325 326 326 326 326 325 325 325 327 326 325 325 323 324 325 322 319 317 318 318 320 318 319 320 323 331 333 335 336 337 337 341 342 343 344 343
300 299 301 305 310 323 320 319 318 317 317 318 318 319 319 318 317 316 316 316 316 317 317 317 317 317 317 316 316 317 317 318 318 318 318 317 318 321 323 325 325 326 327 328 329 328 325 324 325 325 324 326 325 326 325 325 325 324 324 324 324 324 323 324 320 318 317 317 318 319 317 318 320 328 332 335 336 337 338 340 344 345 345 345 344
301 299 302 306 309 321 322 319 318 317 317 317 317 318 318 319 318 316 315 315 316 316 316 316 316 316 315 315 315 316 317 317 318 317 317 314 317 320 323 325 325 326 327 328 329 328 324 324 324 325 324 325 325 325 325 325 325 324 324 324 323 322 323 323 323 318 318 317 319 318 319 321 322 330 334 335 336 337 338 341 343 344 344 345 345
301 301 304 306 309 312 323 321 319 318 317 317 317 318 319 318 318 316 315 315 315 315 315 315 315 315 315 315 315 316 317 317 317 316 315 313 315 317 318 320 322 324 326 328 328 328 326 323 324 325 324 325 325 326 325 325 325 324 324 323 322 322 323 320 320 317 317 318 318 319 319 320 328 332 334 337 338 338 340 343 344 343 344 343 344
302 302 305 304 305 309 314 321 322 320 319 318 318 318 318 319 318 316 315 314 314 314 314 314 314 314 314 314 315 316 317 317 316 316 314 313 314 315 316 318 320 322 325 327 327 328 328 324 324 326 326 324 326 325 325 325 324 324 324 323 323 323 323 323 318 317 316 316 317 320 321 322 330 333 335 337 338 340 342 342 344 344 344 343 344
302 304 303 303 304 306 309 311 316 323 322 321 319 318 318 319 318 316 315 314 313 313 313 313 313 313 313 314 315 316 317 316 315 315 313 313 313 314 314 317 320 323 325 326 326 327 327 326 324 325 325 325 325 326 326 326 324 324 323 323 323 323 323 323 318 316 316 318 320 322 322 322 328 334 335 335 337 340 339 339 343 343 342 342 341
303 303 303 303 303 305 307 307 311 314 311 318 321 320 320 320 318 316 315 313 313 313 313 312 312 313 313 314 315 315 316 315 314 314 314 313 314 313 314 317 320 322 325 325 326 327 327 327 324 325 324 325 326 325 325 327 326 326 325 324 323 322 322 322 316 316 316 321 322 323 323 327 331 332 335 338 339 339 340 340 339 340 340 339 341
302 302 302 302 303 303 305 304 308 309 308 309 308 313 321 321 318 317 315 314 313 313 313 312 312 313 313 314 315 316 315 314 314 315 315 315 314 314 315 316 318 321 324 324 325 327 327 326 326 324 326 326 326 325 325 325 325 325 325 324 323 322 321 318 314 315 318 320 321 323 325 330 331 332 335 338 340 340 338 336 339 341 343 340 341
301 301 301 302 303 302 302 304 306 307 306 306 307 307 319 321 319 318 316 314 314 314 313 313 314 315 316 316 317 314 312 307 313 309 314 315 314 314 315 315 317 319 322 324 324 325 326 327 327 326 325 326 326 325 324 324 324 324 324 324 323 322 315 314 315 317 318 319 324 325 328 325 330 331 336 339 338 339 337 337 339 340 339 340 340
303 301 301 302 301 302 301 302 305 306 305 304 304 304 307 320 319 319 318 317 316 316 316 316 317 317 316 314 315 305 302 301 301 302 312 307 315 315 315 315 316 317 321 323 322 323 324 326 327 326 326 326 324 322 322 322 323 324 323 323 322 316 315 316 318 318 319 320 323 323 328 327 332 332 328 338 340 339 338 338 339 339 339 337 335
300 301 301 301 301 301 301 302 304 305 304 305 306 305 306 317 308 306 308 311 316 318 312 308 314 305 311 309 303 304 303 300 302 308 304 306 306 313 314 314 314 315 318 320 321 322 323 325 326 326 326 324 321 314 315 318 321 323 323 322 319 317 317 318 320 322 323 325 324 327 327 326 332 332 332 338 339 339 339 335 334 334 337 337 338
298 299 301 302 301 302 301 302 302 304 303 303 306 306 304 307 306 304 303 312 310 309 307 307 304 301 301 301 305 301 300 301 302 308 309 311 306 311 312 312 311 312 315 317 318 319 321 322 324 325 324 322 315 314 314 316 318 323 322 321 320 320 320 321 321 321 322 325 325 328 328 329 333 332 334 334 337 338 338 337 337 337 337 337 339
299 300 301 303 301 301 302 302 303 302 302 303 305 305 304 305 305 303 302 302 304 306 304 303 301 300 301 301 302 300 301 299 307 309 308 300 301 305 308 308 308 308 312 310 313 314 317 318 320 322 320 317 314 315 317 318 319 320 320 321 321 321 321 322 321 320 321 325 326 327 327 330 333 333 333 336 335 336 335 335 336 336 337 338 339
300 300 300 302 301 301 302 301 303 302 301 302 304 302 303 302 302 302 301 301 300 301 302 301 300 301 301 301 300 301 298 298 298 298 299 299 298 299 299 298 298 298 309 303 305 306 308 309 313 317 317 317 317 316 317 318 320 319 319 320 321 321 322 323 322 321 321 323 325 328 329 331 334 332 336 335 336 335 335 334 337 337 334 335 339
298 298 299 300 301 302 302 302 302 301 302 302 304 303 304 300 300 300 300 299 300 299 299 299 300 301 299 300 302 297 298 298 297 297 299 299 298 298 298 298 297 298 302 301 302 303 304 308 311 314 316 318 319 318 316 318 319 319 319 319 320 322 323 323 322 321 321 322 324 326 327 332 332 332 338 338 338 336 335 335 334 335 337 336 338
298 299 299 299 301 301 302 301 302 301 301 301 303 302 302 300 300 299 299 298 298 298 298 298 299 299 299 301 300 298 297 297 298 297 298 298 299 298 297 297 297 297 300 300 300 301 303 307 309 311 315 318 319 319 319 319 319 319 320 321 322 323 323 322 321 321 321 321 321 324 328 332 334 335 334 335 338 335 335 335 334 337 338 338 336
297 299 298 299 302 301 302 301 302 302 301 300 300 300 299 298 299 304 302 301 300 298 298 298 299 299 300 300 302 297 298 297 297 297 298 297 298 298 297 296 297 297 299 300 299 299 302 305 307 307 312 315 318 319 319 319 319 320 320 321 323 323 323 322 322 321 321 320 319 321 325 330 332 333 335 339 338 336 335 335 336 336 334 337 338
298 298 298 299 300 302 301 302 302 302 301 300 300 298 297 299 300 300 297 305 297 297 298 299 298 300 301 300 301 298 297 297 297 297 297 298 298 298 297 296 297 297 299 298 299 299 301 303 305 304 308 312 316 318 319 319 319 320 321 320 320 321 321 321 321 322 321 320 319 319 321 325 328 331 333 337 338 336 336 336 336 335 335 337 335
299 298 297 299 300 301 301 302 302 302 301 300 300 298 298 299 299 298 297 303 298 297 299 298 297 300 299 299 301 298 298 298 298 296 297 298 297 298 297 296 297 297 298 298 298 298 300 301 303 302 304 307 312 316 318 319 319 319 320 319 319 319 319 319 320 320 320 320 319 318 318 321 324 329 332 334 335 333 332 333 332 331 330 332 334
298 297 297 299 301 300 301 302 301 304 301 300 299 299 300 298 300 299 298 300 298 299 299 298 297 299 300 299 299 302 297 297 297 297 298 297 297 297 296 296 297 298 298 298 299 299 300 300 302 301 301 303 306 313 316 318 318 319 318 317 318 319 318 318 319 319 319 319 319 318 317 318 321 324 329 333 333 333 334 332 334 332 329 328 329
298 298 298 299 300 301 302 301 301 303 302 301 302 300 299 299 300 298 299 299 299 298 299 298 300 298 299 298 298 299 301 297 298 298 298 297 297 296 296 297 297 297 298 297 298 299 300 299 301 300 299 300 302 307 313 318 318 318 318 317 317 317 318 318 318 318 318 317 318 317 317 316 317 319 323 328 332 331 331 331 332 334 333 330 329
300 299 298 300 301 301 301 301 301 302 301 301 301 300 300 299 300 299 300 301 300 298 297 298 297 298 298 298 298 300 300 298 298 298 300 296 296 296 297 297 297 298 298 297 297 298 300 299 300 299 300 300 301 303 310 315 317 317 318 318 317 316 316 317 317 317 316 316 316 316 315 315 315 315 317 320 325 330 331 331 333 334 335 335 335
300 298 297 300 302 303 304 302 301 302 301 300 300 299 299 299 301 299 300 300 297 297 299 296 297 297 298 298 298 300 298 298 297 297 297 296 295 296 296 297 297 297 297 297 297 297 298 298 298 297 300 299 299 300 304 310 312 316 317 317 316 316 316 315 315 315 314 314 313 313 313 313 313 312 312 316 319 323 328 330 332 333 334 335 335
299 297 299 301 302 303 304 303 303 301 302 300 301 300 299 300 299 298 300 299 297 297 296 296 296 298 298 298 298 300 299 299 298 297 297 296 295 295 297 296 297 297 296 296 296 297 297 298 297 296 296 297 298 300 300 304 309 312 314 316 316 316 315 313 313 311 311 310 310 310 311 311 310 310 310 311 315 318 321 325 328 329 330 332 332
299 299 299 301 302 302 303 302 302 300 300 301 300 300 300 299 299 301 299 297 297 297 296 296 298 297 297 297 298 300 299 298 298 297 297 296 296 296 297 296 297 297 297 296 297 297 297 297 297 295 295 296 297 298 299 304 308 310 311 313 314 314 313 312 310 309 308 308 308 308 309 309 309 309 309 310 311 315 318 320 323 326 327 327 328
299 299 299 300 301 301 303 302 301 300 300 300 299 298 299 298 297 300 298 297 297 296 295 297 298 297 296 296 297 299 297 298 298 297 297 296 296 296 296 296 297 296 296 296 296 297 296 297 296 296 294 294 295 297 299 302 308 309 309 309 309 308 308 308 309 309 309 308 308 308 307 307 308 309 309 309 309 310 313 314 317 319 321 324 326
299 299 300 301 302 301 302 302 302 301 301 300 299 299 298 298 298 298 299 297 296 296 297 297 298 296 296 296 297 298 298 297 296 297 296 298 296 296 295 296 295 296 296 296 296 295 296 294 295 295 294 294 295 297 299 303 307 306 305 304 304 304 303 304 305 305 305 304 304 305 305 305 305 305 306 307 308 308 308 309 311 311 312 314 319
299 299 300 301 301 301 301 302 301 300 300 300 298 298 298 296 296 297 296 295 295 295 296 297 296 296 295 296 297 298 299 296 296 297 296 296 295 294 295 295 295 295 296 296 296 296 296 295 294 294 294 294 294 294 297 303 304 303 302 302 302 301 301 301 301 301 301 300 300 301 301 301 302 302 303 304 305 305 305 305 304 304 305 310 313
299 299 300 300 301 301 300 301 301 300 299 299 299 298 298 298 297 296 296 297 296 297 296 298 296 296 296 296 295 295 297 297 295 295 296 296 295 295 294 295 295 295 295 296 295 295 294 294 295 293 293 295 295 296 298 304 303 302 301 300 300 299 299 299 298 298 298 298 298 299 298 299 299 300 301 302 302 301 300 299 300 300 301 304 308
298 299 300 300 301 302 301 300 301 299 300 299 299 299 298 296 295 297 296 295 297 296 296 295 296 295 295 295 295 296 295 297 297 295 295 298 294 294 294 294 295 296 295 293 293 293 294 294 294 293 293 295 295 294 294 297 302 298 298 297 297 297 298 297 297 297 297 297 297 297 298 298 298 298 300 300 300 299 297 297 296 297 298 299 301
298 299 300 301 301 302 301 301 300 299 300 301 300 300 298 299 298 297 294 294 296 297 295 295 297 297 295 295 295 294 294 295 297 296 295 294 294 294 293 294 295 295 295 294 294 296 293 293 293 294 292 293 292 292 294 296 297 295 293 293 295 296 296 296 296 296 296 296 296 296 297 297 297 297 299 299 298 297 296 295 295 295 296 297 298
299 299 300 300 300 301 301 301 300 300 300 301 300 300 298 298 297 295 297 295 294 294 294 295 295 296 294 294 294 294 294 294 295 296 294 294 293 294 293 293 294 295 294 293 292 293 292 292 291 292 293 292 292 293 293 293 296 293 294 293 289 289 294 294 295 295 295 295 295 295 296 296 296 296 297 297 296 295 295 294 294 294 294 294 296
298 298 298 299 300 301 301 299 300 300 300 300 302 300 299 297 296 297 296 296 296 295 295 294 294 295 295 293 294 293 293 293 294 294 293 293 293 294 293 293 293 294 293 292 292 292 292 292 291 292 290 291 290 293 293 292 291 296 293 290 290 288 287 290 290 293 294 294 294 294 295 295 295 295 295 294 294 294 294 293 293 292 292 293 293
298 298 299 299 300 300 300 299 300 300 300 301 301 299 299 297 297 297 297 297 297 295 295 294 293 294 293 294 294 293 293 293 293 294 294 293 292 292 293 292 293 293 293 292 292 292 291 290 291 291 289 290 291 290 293 293 292 292 292 290 288 287 285 289 290 290 292 292 293 293 294 293 293 293 293 292 292 292 292 291 291 291 291 291 291
298 299 299 300 299 299 299 298 299 299 299 299 300 300 299 298 297 297 296 294 295 294 295 296 294 294 294 292 293 292 293 292 292 293 294 293 292 292 292 293 292 294 293 292 291 291 291 292 291 290 291 290 291 289 290 293 293 293 292 291 289 287 290 290 287 285 290 291 291 292 292 292 292 292 291 291 290 290 291 289 289 288 288 288 289
297 298 298 298 298 298 299 299 299 299 299 299 299 301 298 298 298 298 298 297 296 295 293 293 295 293 293 292 292 292 292 293 292 292 292 293 292 292 292 292 292 292 293 291 291 290 291 291 292 292 290 291 289 290 290 290 290 293 292 291 291 291 293 290 286 288 286 288 290 290 291 291 291 291 290 290 289 289 289 288 287 287 287 287 287
297 297 298 297 298 298 298 298 298 299 299 299 299 300 299 298 298 297 298 297 297 297 295 294 293 294 292 292 291 291 291 291 292 291 291 292 292 292 292 292 292 291 293 290 290 290 292 292 292 291 292 291 290 291 288 287 290 289 290 290 291 291 289 291 290 288 287 285 286 288 290 290 290 290 290 289 288 287 286 286 286 286 285 286 286
295 297 298 298 298 297 298 298 298 298 299 299 300 299 300 299 299 298 297 296 295 295 294 294 294 293 292 290 291 291 291 291 290 291 290 292 293 292 291 291 291 291 291 291 289 289 289 290 290 291 290 290 290 289 289 288 288 289 288 289 290 289 289 289 288 289 286 285 285 284 285 288 289 288 288 288 287 286 285 285 286 285 285 284 285
295 296 296 297 297 297 297 297 297 298 299 299 300 299 299 299 297 296 297 295 295 293 293 293 292 292 292 291 291 291 291 290 289 289 289 290 290 291 291 291 290 291 291 289 288 289 289 289 288 289 289 290 289 290 290 288 289 287 287 288 288 288 289 288 287 288 287 285 285 285 285 284 283 285 286 285 284 284 283 284 284 284 284 283 284
293 295 296 297 297 297 297 297 298 298 299 299 299 299 298 298 297 296 296 295 294 294 293 292 292 291 292 291 291 291 290 290 289 289 289 289 290 291 290 290 291 292 291 289 288 288 288 288 288 288 288 289 288 289 289 287 288 287 287 287 286 287 287 286 288 285 285 284 285 284 284 285 283 282 283 283 283 282 282 283 283 283 283 283 283
Wind_Speed
6 8 6 9 12 10 9 7 6 5 5 4 1 1 1 2 3 5 4 5 5 6 6 6 7 7 8 8 9 9 10 10 11 11 11 12 12 13 13 14 15 16 17 18 19 20 21 21 21 21 21 21 20 21 21 23 22 22 19 20 19 19 19 19 19 16 14 15 15 15 14 14 15 16 15 15 14 13 11 12 14 12 12 13 19
9 7 6 5 12 10 8 7 6 6 5 3 2 1 2 2 4 4 4 5 5 5 6 7 7 7 8 8 9 9 9 10 11 11 11 12 12 13 13 14 15 16 17 18 20 20 20 20 20 20 20 21 22 23 21 21 22 21 20 20 20 20 17 18 19 18 15 14 16 15 14 13 13 15 14 14 14 15 13 13 14 11 7 14 18
9 6 5 5 11 10 8 7 6 6 4 3 3 2 1 2 3 4 4 4 5 5 6 6 7 7 8 8 9 9 9 10 10 11 11 12 12 13 13 14 15 16 18 18 18 19 20 20 21 21 22 21 21 23 24 22 21 22 21 20 20 19 19 20 19 19 17 15 15 15 15 14 12 13 13 14 15 16 15 14 12 16 9 20 18
8 7 5 6 11 10 8 8 7 6 4 4 3 1 1 2 3 4 5 4 4 5 5 6 6 7 8 8 9 9 9 10 11 11 12 12 12 13 13 14 15 16 17 18 19 21 21 20 20 22 23 23 22 20 22 22 21 21 21 20 20 19 19 19 19 18 16 14 14 13 5 1 3 9 12 14 15 16 16 16 14 15 17 19 21
9 6 5 4 5 8 9 8 7 5 5 5 3 2 1 2 3 4 4 4 4 5 5 6 6 7 8 8 9 9 10 10 10 11 12 12 12 13 13 14 16 16 18 19 20 20 20 19 20 21 21 21 22 22 22 21 20 21 21 20 18 17 17 17 17 17 16 15 13 11 4 3 3 7 12 14 15 16 16 16 15 16 20 22 21
7 6 5 4 5 5 10 8 7 6 6 5 4 2 1 1 3 3 3 4 4 4 5 5 6 7 7 8 9 9 9 10 10 11 12 12 12 12 13 14 15 17 18 19 19 19 19 20 20 21 22 22 21 23 21 21 20 20 20 19 18 18 17 17 16 16 16 15 15 6 4 3 3 4 11 13 15 16 16 17 15 16 18 23 22
10 6 5 5 4 5 10 9 8 7 6 6 4 2 2 0 2 3 3 3 4 4 5 5 6 7 7 8 9 9 10 10 11 11 11 12 12 12 13 14 15 17 18 18 19 20 21 22 22 22 22 21 21 20 21 21 20 20 20 19 18 18 17 15 15 15 14 12 3 3 2 3 4 4 11 14 16 17 17 18 17 16 17 21 21
6 6 5 5 5 6 11 10 9 7 7 6 5 4 2 1 1 3 3 4 4 4 5 5 6 6 7 8 9 9 9 10 10 11 11 11 11 12 13 13 15 16 18 18 19 20 20 22 22 22 21 21 22 21 20 19 19 19 18 18 18 15 17 16 14 13 15 6 4 3 3 3 4 5 10 15 16 17 18 19 18 17 18 17 17
7 5 6 5 5 9 11 10 9 8 7 6 5 4 3 1 0 2 3 3 4 4 5 5 6 6 7 8 9 9 9 10 10 11 11 11 11 12 12 14 15 16 17 18 19 19 21 22 21 22 21 20 21 21 19 19 19 18 18 18 17 15 17 15 12 15 8 4 4 4 4 4 4 6 10 15 17 17 18 17 14 16 17 18 17
6 6 6 5 5 10 11 11 10 9 8 7 5 4 3 2 1 2 3 3 3 4 5 5 6 7 8 8 9 9 9 10 10 11 11 11 11 12 12 14 15 16 16 17 18 22 21 20 20 20 20 19 19 20 19 19 19 19 18 17 15 15 12 14 12 10 5 3 4 4 4 7 5 6 10 16 17 17 17 18 13 13 12 16 20
7 6 6 6 7 10 12 11 10 9 8 7 6 4 4 2 1 2 3 3 4 4 5 5 6 7 8 8 9 9 9 10 10 10 11 11 11 12 13 14 15 15 16 17 20 21 19 19 19 18 18 17 18 19 19 19 19 19 18 16 11 14 9 11 12 5 4 5 4 4 5 11 6 5 12 17 18 18 18 16 14 13 14 16 19
7 5 6 5 8 12 12 12 10 9 8 8 6 5 4 2 3 3 3 3 4 4 5 5 6 7 7 8 9 9 9 9 10 10 11 12 12 12 13 13 13 14 15 17 20 19 20 18 18 17 17 18 19 19 20 20 19 17 15 14 11 12 11 11 6 4 3 4 4 4 5 5 6 8 17 18 18 18 19 17 16 16 15 17 19
6 6 5 5 6 9 12 11 10 9 9 7 6 6 4 4 4 3 3 3 4 4 5 5 6 7 7 8 9 9 9 9 10 10 11 12 13 12 11 12 12 13 15 18 20 20 17 17 17 17 17 17 18 19 19 19 18 17 15 13 11 11 11 11 4 3 3 4 4 5 4 5 6 13 17 18 18 19 18 17 17 17 16 15 18
6 5 5 6 6 8 12 11 10 9 9 8 7 6 6 5 5 4 4 3 4 4 5 6 6 6 7 8 8 9 9 10 10 10 10 12 12 12 11 12 12 14 16 19 19 20 17 17 17 18 17 17 19 20 18 20 19 17 16 13 10 9 9 8 6 3 3 4 4 4 5 6 6 15 17 18 19 19 18 18 18 17 17 19 19
9 6 6 5 5 5 10 11 10 10 9 9 8 7 7 6 6 5 4 4 4 4 5 6 6 6 7 8 9 9 9 10 10 10 10 11 12 12 12 13 14 15 16 18 18 20 18 16 16 17 17 17 19 19 18 18 18 16 14 12 11 9 9 4 3 2 4 4 4 5 6 6 12 17 18 18 19 19 19 18 17 16 18 18 18
9 8 6 6 5 5 5 7 10 10 9 9 8 8 7 7 6 5 5 4 4 4 5 5 6 6 7 8 9 10 10 10 10 10 9 10 13 13 13 14 14 15 14 15 17 19 20 17 16 17 19 16 18 19 20 17 17 17 15 13 13 13 12 8 3 4 4 5 5 5 6 6 14 16 17 18 18 17 17 16 15 17 16 15 16
6 7 7 6 5 5 5 4 6 9 9 8 8 8 8 7 6 6 6 5 5 4 4 5 5 6 7 8 9 10 11 10 10 10 10 10 12 13 14 15 15 13 13 15 17 18 20 18 15 16 17 17 17 19 20 19 18 17 16 13 12 12 11 10 3 4 5 5 4 5 6 6 11 15 15 16 17 16 15 15 16 14 12 12 18
5 7 7 6 5 5 4 4 4 4 4 6 7 8 8 8 7 7 6 6 5 4 4 4 5 5 6 8 9 10 11 10 9 10 10 10 12 13 14 15 15 14 13 15 16 17 20 19 16 14 15 16 17 17 18 18 17 17 15 14 12 11 11 10 4 5 5 6 5 6 6 10 16 14 14 16 18 17 14 12 11 11 5 11 19
5 6 6 6 6 5 5 4 4 4 4 4 4 5 8 8 8 7 7 7 6 5 5 4 5 6 7 8 9 10 10 9 9 10 10 10 11 12 12 14 15 14 14 15 15 16 18 19 17 16 15 16 16 16 15 16 16 17 14 13 13 11 10 6 5 5 6 5 4 6 6 11 9 9 8 9 18 14 7 11 18 4 25 21 23
5 5 5 5 5 5 4 4 4 4 4 5 4 4 6 8 8 8 8 7 7 6 6 5 6 6 7 8 8 6 6 5 9 6 8 9 10 8 11 12 14 14 15 15 15 15 17 18 18 17 16 15 15 14 14 16 15 16 14 14 13 11 5 4 4 5 6 5 4 4 9 4 8 6 8 19 17 25 22 21 24 24 17 25 24
3 4 5 6 4 5 4 4 4 5 5 4 4 4 4 7 7 8 8 8 8 8 7 6 6 6 5 6 6 4 4 4 4 4 7 4 7 7 10 12 13 14 14 15 15 15 14 15 17 18 17 16 14 14 14 15 15 16 15 15 14 6 5 5 4 6 6 4 2 3 8 3 10 11 7 16 26 25 26 23 23 25 21 21 19
6 5 4 4 4 4 5 5 4 5 5 5 3 3 3 5 5 4 4 5 6 6 5 4 5 3 5 4 4 3 3 4 4 5 3 3 5 9 9 11 13 13 13 14 14 14 14 14 15 16 16 14 13 7 7 9 12 15 14 14 8 6 4 4 4 4 5 4 3 5 8 6 8 8 5 15 24 26 26 23 20 21 22 22 20
5 5 6 6 6 6 4 5 6 6 5 4 4 4 4 4 5 4 4 5 4 4 4 4 4 3 4 4 3 3 3 3 3 4 3 5 5 8 9 10 11 12 13 12 12 14 14 13 14 13 13 12 7 6 6 6 6 12 10 8 7 7 7 7 7 6 6 3 4 8 5 7 8 9 12 16 14 23 24 21 23 21 21 23 21
8 8 9 6 6 6 6 6 7 6 6 5 4 4 4 4 5 4 5 4 4 4 4 4 4 3 4 4 3 3 3 3 4 5 5 4 5 6 8 9 10 10 13 8 10 11 13 12 13 12 7 5 5 5 5 5 5 6 6 7 6 8 8 5 1 4 5 10 7 9 9 10 8 9 11 15 16 21 22 22 21 21 20 22 23
9 6 4 6 7 7 5 6 6 6 6 6 4 5 4 4 4 4 4 4 4 4 4 4 3 4 4 4 3 2 2 3 3 3 4 4 4 4 5 5 5 5 8 6 6 7 7 6 7 7 5 6 6 5 5 5 5 6 6 6 7 7 7 7 7 7 8 8 11 20 21 13 11 7 10 18 18 21 22 21 21 22 21 20 22
2 4 8 7 7 7 7 7 5 6 7 7 7 5 4 4 4 5 4 3 3 4 3 3 4 4 3 2 1 2 2 4 3 3 3 4 4 4 5 4 4 5 5 6 6 6 6 6 6 6 5 5 5 5 5 5 6 6 6 6 6 6 6 8 9 10 10 10 13 19 22 14 17 6 13 17 17 19 19 21 19 18 21 21 21
6 8 7 7 7 6 7 6 7 6 6 5 5 4 5 6 5 4 4 4 3 2 2 4 2 1 2 2 0 1 2 3 4 3 4 3 4 4 4 4 4 5 5 5 6 5 5 6 5 6 5 5 5 6 6 6 5 6 6 6 6 7 7 8 9 9 9 9 11 20 21 17 18 17 16 16 18 19 19 21 19 19 20 21 21
5 8 7 7 7 9 8 7 7 6 6 5 5 5 5 4 5 4 4 4 2 1 2 2 1 3 3 2 1 1 1 3 3 3 4 3 4 3 3 4 3 4 5 4 5 5 6 5 5 5 6 6 5 5 6 6 6 7 7 8 7 7 7 8 8 9 9 9 10 17 21 23 18 12 16 20 21 19 17 19 19 19 19 21 20
7 8 7 7 8 9 7 8 7 7 6 6 5 6 5 4 4 4 4 3 3 2 3 1 1 3 2 2 2 1 1 1 2 3 3 3 3 3 3 4 4 4 5 5 5 5 5 5 6 5 5 6 6 6 6 6 6 6 6 8 7 8 8 8 8 8 8 8 9 14 20 22 21 21 11 17 18 18 17 18 18 17 16 19 19
10 7 7 8 7 7 8 9 9 9 8 6 6 6 5 5 5 4 5 2 4 3 2 1 2 4 3 2 1 2 1 0 0 2 3 4 3 3 3 5 4 4 5 5 5 4 5 5 6 6 5 5 6 6 5 6 6 6 6 7 8 7 7 8 9 8 8 8 9 11 22 22 22 25 17 15 17 15 14 16 18 17 14 14 16
6 7 7 8 7 7 8 8 7 7 6 7 6 6 5 5 5 5 3 4 4 2 2 1 3 3 3 3 2 1 2 1 1 1 3 3 3 3 3 3 6 5 4 5 4 4 3 4 4 5 5 5 5 5 5 6 6 6 6 6 7 7 8 8 8 8 9 8 9 9 14 22 23 24 24 14 13 13 16 17 13 17 17 14 14
9 10 8 7 7 8 9 7 8 7 8 7 6 6 6 6 5 4 5 4 3 4 1 1 3 4 3 3 2 2 1 1 1 1 2 3 3 3 3 4 5 5 4 4 5 4 3 3 3 3 3 4 5 6 5 5 6 5 5 7 6 7 7 7 8 8 8 9 8 8 9 12 20 25 24 22 12 15 15 15 13 14 17 18 16
8 9 8 7 9 9 9 8 7 7 8 8 7 6 6 4 5 5 5 4 5 3 3 2 4 3 2 2 2 1 1 1 0 1 1 2 2 3 4 3 3 4 3 3 4 5 5 6 6 4 5 6 6 6 5 5 5 5 6 7 6 7 7 7 7 8 9 9 8 7 9 10 10 16 22 20 23 20 17 17 13 15 15 14 14
9 7 6 10 8 6 7 6 6 8 8 7 6 6 5 5 5 6 4 5 4 4 2 1 1 2 2 2 2 1 1 1 1 1 1 2 2 2 3 4 3 3 3 4 5 5 5 5 5 5 5 6 6 5 5 6 5 5 6 6 7 7 7 8 8 8 8 9 8 8 9 8 9 9 11 21 21 22 25 25 24 23 22 20 19
7 6 10 10 8 8 6 6 7 8 7 7 7 6 5 6 6 5 4 5 4 3 2 3 3 4 3 2 1 1 0 0 1 1 2 2 2 2 3 3 3 2 4 4 4 4 3 4 5 5 3 5 4 5 4 5 5 7 6 5 6 7 7 7 7 8 9 8 8 9 9 8 8 8 9 9 15 22 26 25 23 23 24 22 20
11 11 9 7 9 8 7 8 7 8 8 8 7 7 7 6 6 5 5 4 4 4 4 4 4 3 3 2 1 1 0 0 1 1 2 1 0 1 1 2 3 3 4 4 4 5 4 3 4 3 5 5 5 5 5 5 5 6 6 6 6 7 7 7 8 8 7 8 8 8 8 7 7 8 9 9 10 14 24 23 23 23 23 22 21
10 9 10 8 8 8 8 8 10 10 8 6 6 5 5 5 5 5 5 4 5 4 4 5 4 4 3 3 1 1 0 0 1 1 1 1 0 0 2 2 2 3 4 4 5 4 3 3 4 4 3 4 5 4 5 5 6 6 6 7 7 8 8 7 7 7 7 9 9 9 8 8 8 10 8 9 9 11 17 21 22 23 22 22 22
9 10 11 12 12 10 9 9 9 9 8 8 7 6 5 4 4 5 4 5 4 4 5 5 5 4 3 3 1 1 0 0 1 1 1 0 1 0 1 3 3 3 4 4 5 3 3 3 3 4 4 4 5 5 5 5 6 7 7 8 8 8 7 8 7 7 8 9 9 9 8 8 9 10 9 9 9 10 10 16 22 22 22 21 22
8 9 9 9 8 8 7 7 8 7 7 6 5 5 4 3 3 4 4 3 3 2 3 5 5 4 4 2 1 1 1 1 1 1 2 1 2 1 3 3 3 3 4 4 5 4 4 4 4 4 4 4 4 3 5 7 8 8 8 8 8 8 8 7 8 8 8 8 9 8 8 9 9 9 10 10 10 10 11 10 10 10 13 20 20
8 8 9 8 9 8 6 6 7 8 6 5 6 6 6 6 5 2 3 2 3 3 1 4 4 4 3 2 2 1 1 1 1 1 2 2 3 2 2 2 3 4 4 5 5 5 4 3 4 4 4 5 5 4 4 8 8 9 9 9 8 9 10 9 9 9 8 8 8 8 9 8 9 9 10 10 10 11 11 11 10 10 9 13 19
7 9 9 9 10 11 9 10 8 7 8 7 7 7 6 4 2 6 6 5 5 3 3 3 4 4 3 3 2 1 1 1 1 2 3 3 3 2 3 3 3 4 4 3 3 3 2 1 1 3 4 6 5 3 2 3 9 9 8 9 10 9 9 9 10 9 8 8 8 9 8 9 9 10 10 10 11 12 11 11 10 9 9 9 11
8 9 12 12 10 9 11 10 7 8 8 9 9 8 6 7 7 7 4 5 5 6 3 2 4 3 3 3 2 1 2 1 1 2 2 3 3 3 3 2 3 4 3 3 3 3 4 3 1 3 3 4 3 3 3 2 3 6 8 6 9 8 8 11 10 10 9 8 7 8 8 10 10 9 9 10 11 11 11 10 9 10 9 9 9
12 12 11 9 9 9 9 8 9 9 8 8 7 7 5 4 5 4 6 3 0 1 3 3 3 4 3 2 2 2 2 2 1 1 3 2 3 4 3 2 2 2 3 4 4 5 4 3 3 3 3 3 3 3 4 1 5 3 4 6 3 5 7 8 8 10 8 7 7 9 9 10 11 9 9 10 10 10 10 10 11 11 10 10 9
9 8 8 11 9 9 8 9 9 8 9 8 8 6 5 4 3 4 3 4 4 3 3 3 3 4 3 2 2 2 2 2 1 2 2 2 3 4 3 3 3 1 4 4 4 4 4 4 3 2 2 3 3 4 4 3 3 6 2 1 3 5 5 7 6 6 6 8 10 9 8 9 10 10 9 11 10 10 10 10 12 11 11 10 10
11 12 11 11 10 12 11 10 10 10 8 8 8 6 6 5 5 5 4 5 5 3 4 2 2 3 2 2 2 1 2 2 2 2 3 3 3 4 4 3 3 2 3 4 4 3 3 2 1 3 2 4 1 1 4 5 4 3 4 4 2 3 2 6 6 8 7 8 10 9 9 9 9 9 10 10 9 9 9 11 11 11 11 11 11
11 12 12 12 9 9 8 8 7 7 9 8 8 8 8 9 7 7 6 4 4 5 8 8 6 5 6 2 1 1 2 2 2 2 2 3 4 3 4 4 3 3 3 3 3 3 4 4 2 2 3 1 4 2 2 4 5 6 4 1 2 4 9 7 3 3 3 6 6 8 9 9 8 10 9 9 10 9 9 10 10 11 10 10 10
11 8 7 8 8 9 9 9 9 8 8 8 8 8 7 8 10 10 9 9 9 6 3 3 6 4 4 4 3 1 2 3 1 2 3 3 4 3 4 4 3 3 2 3 3 3 3 3 2 4 3 3 2 4 3 1 3 4 5 3 3 2 6 7 4 7 7 4 6 7 8 9 9 10 10 10 9 10 9 9 10 10 10 9 10
10 7 8 7 9 10 9 10 8 8 8 8 9 9 10 9 8 7 8 8 9 9 7 5 3 5 5 4 4 2 1 2 3 2 3 3 4 4 4 4 4 3 3 3 3 2 3 3 4 4 4 4 4 6 3 1 3 1 3 4 5 6 3 5 5 6 8 8 6 6 7 8 10 9 9 10 10 9 9 9 9 9 9 10 9
7 9 10 10 9 8 9 8 9 8 8 9 10 9 9 10 10 9 8 6 4 4 4 4 6 5 5 3 4 3 2 1 2 3 3 4 4 4 4 4 4 3 3 4 3 3 4 4 4 5 5 4 3 3 5 3 4 3 1 4 5 6 6 4 4 5 7 10 5 5 6 5 9 9 8 8 8 8 9 9 9 9 9 9 9
6 6 5 5 6 6 8 9 9 8 8 9 9 9 8 8 8 8 9 7 4 4 5 6 6 5 6 5 4 5 4 3 3 3 4 4 4 4 5 5 5 4 3 4 4 4 4 4 4 5 5 6 3 4 6 5 4 3 2 3 4 3 5 3 3 6 6 3 11 8 5 6 9 5 6 8 9 9 9 9 9 9 9 9 8
5 5 6 7 7 8 9 10 11 8 8 9 9 11 8 8 9 9 10 9 7 8 7 6 6 5 7 6 6 6 4 5 4 3 4 4 4 4 5 5 4 4 5 4 5 5 5 5 5 4 4 6 5 5 5 3 4 4 3 3 3 2 5 5 7 4 5 6 8 6 5 4 9 9 5 6 8 8 8 8 8 8 8 7 7
Wind_Direction
222 183 194 204 176 177 178 170 153 136 124 135 111 48 22 356 332 332 333 335 336 334 337 338 338 341 340 338 337 337 336 335 331 329 327 326 325 325 324 319 323 325 325 323 324 324 322 319 319 319 317 315 309 304 305 304 305 304 300 294 292 289 289 284 284 281 282 288 288 285 286 288 294 295 291 288 291 303 287 260 251 230 220 238 234
180 208 189 206 176 176 171 162 148 132 130 125 112 79 23 347 332 327 331 335 333 333 337 338 339 339 340 339 338 337 334 333 331 328 327 325 326 327 326 325 328 327 326 327 328 326 325 324 320 315 313 314 308 306 306 304 309 304 301 299 293 295 288 291 288 280 278 279 283 284 282 283 289 294 296 296 293 289 286 273 251 228 213 230 235
150 175 198 197 175 173 168 159 144 138 131 127 107 85 18 342 329 330 333 332 333 334 335 338 337 339 339 338 337 335 333 331 330 327 326 327 330 331 328 331 328 328 331 330 328 324 322 321 317 315 317 318 312 311 310 308 308 302 300 298 300 299 294 290 285 284 281 276 279 280 282 284 289 295 298 296 292 285 278 276 259 236 223 231 230
143 183 181 193 173 169 167 158 147 140 142 124 123 84 59 334 330 331 333 335 332 332 335 337 337 338 339 337 335 334 334 331 329 330 330 331 332 333 333 331 331 333 332 330 328 327 326 324 320 320 321 321 317 313 308 305 305 305 303 302 298 294 290 286 283 283 282 276 272 274 274 280 291 294 290 289 286 283 278 275 265 237 226 231 228
155 172 182 194 162 167 166 158 150 148 135 141 126 139 52 345 331 334 340 335 330 331 335 336 337 336 336 336 337 336 334 332 332 331 331 333 337 334 334 331 335 334 332 332 332 334 332 330 324 321 318 315 315 313 309 306 306 306 304 298 293 292 287 284 282 280 276 272 271 271 254 240 250 275 282 282 282 281 278 276 271 254 235 230 230
165 175 180 174 164 180 164 160 157 147 150 138 145 132 76 3 338 341 335 333 329 333 334 334 333 334 335 337 336 334 334 333 332 333 334 336 339 335 333 334 336 333 335 335 335 330 328 327 324 323 322 319 315 313 313 311 311 305 302 301 298 294 290 288 279 275 279 274 271 270 248 227 248 259 270 276 277 277 275 275 269 259 241 236 233
164 174 174 173 169 185 169 165 160 159 147 150 142 138 138 355 353 335 326 328 329 327 329 331 331 333 335 334 336 337 335 335 334 333 336 338 339 334 333 336 335 336 338 338 333 333 332 328 328 325 321 323 321 315 313 314 312 307 305 300 299 296 294 289 287 278 282 286 304 264 234 246 251 254 262 271 273 274 275 273 267 255 253 238 228
156 165 177 172 173 193 171 171 171 163 161 152 151 157 167 118 358 331 328 322 323 323 329 330 329 331 333 337 338 338 338 335 334 335 338 341 338 335 336 336 339 341 340 337 335 333 330 329 330 330 330 330 331 331 324 318 313 308 303 299 296 296 295 290 292 288 279 280 282 252 239 245 250 252 261 270 270 272 274 273 271 258 247 240 225
168 174 173 175 183 191 178 173 174 174 165 159 165 171 174 176 293 329 317 317 317 321 325 327 327 329 336 338 339 339 337 336 336 339 342 343 339 336 336 340 341 343 341 339 336 335 336 335 338 339 338 336 335 334 330 324 318 311 305 300 299 301 296 299 294 289 286 252 259 257 247 245 249 252 260 266 268 269 272 273 279 273 265 246 224
173 168 177 174 186 195 181 178 178 177 174 175 179 175 190 187 209 309 314 309 306 318 324 325 328 333 336 341 340 340 338 337 338 343 347 345 342 336 340 341 343 345 341 338 339 342 343 349 344 341 340 340 338 334 334 330 323 318 313 304 310 314 311 309 291 274 249 267 253 244 242 243 243 250 257 263 267 270 271 272 272 266 258 241 229
162 167 173 177 186 195 183 181 183 179 179 184 184 190 190 197 228 286 306 304 313 316 317 323 328 333 338 340 343 340 338 340 344 348 349 348 345 342 342 344 344 345 339 341 347 350 357 350 348 346 346 343 339 337 336 331 328 324 323 319 304 286 287 279 277 252 242 247 251 248 251 262 262 254 258 265 265 268 269 269 268 266 257 240 229
172 167 170 178 188 193 182 182 182 183 185 185 191 193 202 200 249 259 277 297 307 312 315 319 328 335 338 341 342 340 340 346 350 351 349 347 346 343 342 344 345 343 343 345 351 354 357 355 347 348 345 344 343 341 341 337 338 331 329 321 309 299 285 272 273 239 241 244 248 252 252 261 259 259 263 262 264 264 265 263 261 255 249 242 234
185 167 171 175 184 193 185 186 187 192 192 193 196 202 201 220 230 241 270 295 302 305 307 318 326 335 339 342 340 341 345 349 351 349 346 347 348 346 349 346 347 346 346 347 353 357 2 351 347 348 344 347 344 342 345 348 346 340 334 327 314 300 297 297 284 268 266 265 267 269 267 263 258 258 264 262 261 260 262 261 259 256 243 232 231
177 180 175 174 181 193 186 189 192 196 198 201 202 199 212 219 225 247 259 280 291 297 307 312 327 334 339 338 338 339 342 346 346 346 345 350 351 349 350 346 347 345 342 345 353 354 358 350 346 345 344 349 346 343 352 358 355 352 348 337 321 312 305 294 294 279 271 267 267 268 261 261 254 262 268 265 260 259 257 255 251 252 243 234 223
169 180 180 176 182 192 191 191 197 200 206 203 200 206 212 214 229 239 257 264 277 294 304 313 324 333 336 336 335 335 339 342 343 344 343 348 349 346 341 339 338 338 340 345 351 355 353 352 345 344 345 348 349 348 352 359 3 349 357 347 342 336 320 317 310 305 299 290 283 278 273 266 270 279 276 270 265 260 257 252 253 252 243 236 226
166 173 170 179 185 194 201 197 197 205 208 206 205 206 210 220 226 236 241 257 269 285 303 313 322 332 334 333 331 333 337 340 344 344 342 344 348 345 342 339 339 340 343 348 351 3 349 355 347 348 336 347 348 349 352 1 3 1 355 353 347 341 338 336 332 306 292 280 274 274 268 261 280 280 275 271 268 262 259 252 252 249 249 236 229
168 159 163 183 189 196 197 203 207 207 207 205 202 204 210 215 222 227 238 253 265 280 296 306 318 328 331 331 328 331 333 339 347 343 345 341 346 347 346 341 341 349 350 352 352 358 1 354 355 349 341 352 348 353 351 357 1 0 0 353 343 339 331 327 309 287 279 274 273 271 264 268 277 277 269 266 263 256 247 243 251 254 242 225 223
166 158 171 178 186 194 192 205 220 217 209 205 202 202 206 215 222 227 231 248 256 269 279 293 309 318 322 321 323 327 330 333 337 340 343 339 342 350 346 342 341 349 349 348 352 353 4 4 1 351 345 345 351 352 351 353 354 354 353 351 346 338 328 321 299 293 282 277 277 266 278 267 274 274 270 256 247 243 237 251 260 254 175 155 130
164 170 167 162 190 185 196 201 209 211 205 206 204 207 206 214 218 218 229 235 247 249 258 273 285 298 304 307 311 319 324 326 324 335 337 333 335 348 342 340 342 345 342 347 348 346 1 6 8 3 354 350 351 355 353 348 353 353 350 346 338 334 332 322 307 300 286 272 270 277 272 314 331 342 342 259 227 223 179 95 70 165 135 120 112
179 176 176 193 183 183 192 196 205 209 201 207 206 206 216 209 213 222 223 235 239 241 243 253 265 274 288 295 299 308 317 320 321 335 323 329 331 337 339 336 343 344 344 349 350 346 347 357 8 10 7 358 354 355 352 351 351 352 351 347 340 338 326 322 309 303 291 285 283 315 330 352 16 2 76 93 101 112 102 88 88 82 97 111 105
209 211 195 201 200 192 199 189 211 206 206 204 207 203 215 214 211 215 224 231 236 238 239 244 256 271 279 285 289 304 307 314 322 315 325 321 323 327 335 341 345 344 347 352 353 346 342 346 355 6 7 5 358 355 350 348 352 353 352 354 349 339 325 323 323 263 259 267 316 300 17 25 67 55 7 104 109 106 108 99 90 97 94 84 102
209 220 237 224 203 213 201 201 202 214 203 199 204 202 214 214 208 223 234 238 244 239 243 242 247 258 278 280 278 299 312 315 319 320 324 319 336 336 337 342 345 344 350 351 348 346 344 341 343 354 359 359 357 349 338 333 343 352 355 357 351 332 317 308 291 318 330 311 349 32 54 319 75 102 49 108 113 112 108 108 107 106 112 111 96
224 229 234 220 211 207 198 195 203 200 195 195 193 203 202 206 214 221 230 238 236 243 238 244 248 250 260 259 275 298 304 323 318 328 326 346 348 340 342 345 345 344 349 348 345 345 345 342 339 342 353 356 355 339 330 327 335 343 353 4 347 335 342 345 353 340 324 16 56 56 348 1 71 96 96 104 107 113 110 113 115 120 123 120 120
215 207 211 212 205 203 203 194 191 191 177 190 188 192 197 206 219 224 227 234 238 238 236 239 242 244 245 252 275 291 317 322 339 346 357 7 347 344 347 349 345 339 347 344 345 343 348 343 337 337 351 351 343 335 331 328 336 333 356 1 354 342 348 354 312 323 4 53 53 48 28 357 71 75 86 104 117 112 117 122 122 128 126 126 125
211 213 212 211 205 204 196 202 189 176 175 184 181 194 207 210 229 232 231 230 239 239 242 246 248 242 240 242 268 292 324 348 357 349 360 2 0 346 348 349 340 336 339 340 342 339 346 344 339 339 348 345 344 338 330 340 349 349 0 1 359 349 351 0 2 7 35 43 36 28 13 349 111 62 96 117 116 115 121 129 134 126 119 115 108
257 210 217 211 206 200 193 196 180 182 180 179 186 201 182 214 232 239 232 243 217 228 220 223 234 230 226 220 246 3 343 4 354 353 349 9 359 351 338 337 350 335 335 336 341 345 346 347 342 341 341 339 341 341 337 343 358 4 5 10 13 1 9 8 17 18 19 25 27 27 4 81 115 132 116 120 111 112 117 110 104 114 111 108 107
209 220 213 208 200 195 196 180 185 186 190 185 186 180 194 212 217 223 200 229 203 177 229 234 219 191 203 203 123 326 2 2 347 347 346 356 357 351 335 333 347 337 332 335 343 342 345 347 346 342 343 344 345 351 349 350 4 26 18 12 13 34 32 31 24 20 17 27 25 28 23 49 112 117 113 120 109 104 109 111 120 108 105 101 103
196 223 214 203 191 196 191 176 188 179 191 183 177 187 208 206 214 208 200 208 161 194 233 223 148 219 184 185 133 154 62 7 343 338 338 351 357 338 323 334 355 340 326 330 347 345 348 351 350 349 360 357 350 0 357 355 5 35 37 21 14 29 42 45 39 25 24 25 24 26 33 32 40 91 127 121 117 117 111 106 105 102 100 98 98
213 217 207 193 198 189 176 186 181 185 181 170 176 192 193 197 207 197 209 213 175 207 226 134 198 131 151 176 175 85 55 50 341 330 321 5 351 347 338 333 347 350 341 339 351 344 351 351 352 355 3 6 356 7 4 16 7 22 53 52 32 29 34 43 44 37 32 28 28 28 34 34 29 36 73 112 109 120 121 112 105 98 92 92 95
211 200 189 199 189 177 178 185 182 181 176 166 181 176 195 192 205 202 219 200 210 212 214 156 197 145 197 203 185 133 130 145 290 332 12 355 358 343 346 344 348 347 353 344 335 342 351 356 359 1 9 13 12 358 4 27 28 13 24 56 57 47 37 41 39 38 42 34 31 26 32 35 34 36 51 74 80 91 102 107 108 108 103 101 99
194 204 197 193 187 172 190 186 182 178 166 176 176 187 179 193 199 208 212 194 208 206 198 162 169 176 201 190 158 138 144 143 97 358 25 9 4 357 346 336 0 352 341 333 330 343 349 16 1 355 4 13 14 357 7 24 27 36 25 34 54 61 59 51 44 40 42 40 40 31 33 36 35 33 41 89 98 104 99 99 105 114 117 118 115
194 208 198 189 175 187 185 187 182 174 171 181 179 183 188 196 200 188 202 207 185 189 182 152 173 192 214 177 133 137 138 139 98 56 51 22 8 348 337 9 352 342 338 331 346 348 352 358 16 15 7 29 26 15 356 30 30 23 39 37 30 42 48 58 63 55 49 44 41 38 37 37 39 37 38 42 99 105 94 93 102 117 122 125 126
212 199 190 178 186 186 182 188 177 175 174 180 185 190 190 194 186 195 202 193 190 178 179 186 196 196 197 153 140 148 160 140 143 86 66 70 23 3 7 3 352 334 336 343 0 3 7 9 18 12 30 33 37 17 4 24 33 26 35 35 39 43 45 45 45 51 56 55 49 40 48 36 36 42 43 43 50 67 72 79 81 100 112 119 120
198 196 170 188 188 180 181 170 175 176 184 180 180 180 193 191 193 192 186 180 189 182 198 160 187 167 151 122 137 164 166 178 114 64 77 66 41 23 17 2 349 338 345 6 20 13 9 14 6 30 32 41 38 20 26 32 20 28 39 44 45 38 41 46 48 53 55 53 52 53 55 46 43 44 45 47 46 52 55 59 60 69 73 78 95
181 177 188 188 178 181 171 174 178 181 178 182 180 187 186 183 184 185 182 183 183 179 187 117 147 145 117 99 125 168 211 132 127 100 65 79 61 6 18 345 339 358 22 7 27 24 21 15 13 37 42 42 41 39 34 38 35 41 29 35 50 51 48 48 43 44 49 58 57 55 54 50 53 56 54 52 53 55 60 60 60 56 59 58 57
186 186 187 173 180 182 177 174 177 176 183 182 184 183 179 184 180 180 178 174 165 163 141 141 135 125 110 106 129 146 5 339 67 96 76 78 114 22 355 359 3 28 34 18 30 23 4 13 19 43 63 37 46 38 32 44 47 48 39 47 50 55 61 54 52 52 57 59 53 53 53 53 55 62 63 58 57 52 59 62 59 57 59 62 58
186 176 180 176 182 184 181 175 178 181 180 181 177 178 170 174 177 177 175 163 167 150 138 134 121 118 126 106 123 114 41 353 19 64 97 71 109 354 344 37 26 50 42 35 38 10 16 15 19 33 69 84 64 59 46 43 61 57 49 51 48 57 55 52 51 55 53 56 52 49 46 42 43 48 53 59 59 61 49 48 49 47 44 48 58
189 182 180 176 184 181 183 183 181 178 173 174 175 172 172 163 161 167 163 164 163 143 146 133 122 132 128 116 128 117 80 19 31 55 87 47 103 40 335 49 61 51 50 45 38 14 13 24 35 25 47 78 70 76 66 61 70 64 57 51 45 50 44 46 47 46 52 52 50 47 45 46 44 40 42 45 55 57 56 48 50 46 40 37 40
188 185 180 182 170 177 176 183 173 172 168 163 158 146 130 101 103 133 135 129 102 110 141 110 129 116 112 134 114 99 115 52 46 76 95 59 66 37 39 31 81 75 53 45 35 24 20 4 49 31 37 63 93 81 91 90 83 75 64 46 44 41 44 48 52 53 50 52 52 50 49 47 47 46 46 47 48 51 51 50 48 48 43 36 38
182 178 180 174 174 172 176 176 177 170 158 153 145 141 139 145 141 95 116 139 140 125 80 131 129 112 122 110 101 101 75 84 69 82 88 90 82 44 35 27 65 84 60 48 33 29 12 6 20 47 53 61 56 61 79 96 88 78 71 58 48 47 44 47 48 45 45 42 46 46 50 47 51 49 51 54 55 52 50 47 43 40 35 28 29
179 176 175 182 178 176 167 183 180 167 159 159 165 157 154 151 129 179 183 184 164 150 130 133 113 125 117 106 106 103 90 83 72 98 99 94 88 78 62 30 74 92 89 89 76 44 16 354 351 26 64 78 40 12 26 86 106 80 67 68 61 48 49 47 47 44 44 44 42 48 41 50 50 53 53 56 55 53 52 48 47 45 39 34 28
196 180 183 187 182 173 178 179 166 173 176 174 173 175 175 183 169 181 165 160 157 158 156 179 139 123 110 109 114 107 88 90 104 101 102 117 110 81 70 86 93 98 104 99 61 53 40 35 16 40 17 87 62 353 321 83 35 123 121 86 67 60 48 47 40 34 35 37 44 56 54 60 58 57 59 61 57 55 51 48 46 44 39 38 36
179 187 188 173 178 181 187 173 176 175 183 179 169 181 180 168 151 169 159 147 216 182 153 157 138 119 95 99 107 105 107 81 94 122 113 113 120 108 105 103 100 113 91 60 63 50 40 36 32 113 65 28 84 28 16 31 139 135 118 105 126 77 24 35 35 35 28 34 43 54 59 64 64 65 68 68 63 57 54 50 48 44 39 35 31
173 180 180 184 182 188 186 179 179 180 177 184 181 186 163 133 87 128 123 117 168 126 85 99 103 100 97 69 79 103 106 106 103 108 105 115 127 123 119 102 91 90 115 103 78 74 50 30 36 54 101 60 21 24 14 15 127 134 85 108 148 112 87 39 43 19 15 36 37 46 49 60 65 68 68 68 66 64 59 55 50 45 40 36 34
182 184 183 186 187 189 187 182 178 181 181 178 177 155 118 95 85 71 81 74 60 83 107 101 128 136 120 115 125 100 110 111 104 111 127 122 117 125 118 111 101 82 95 102 97 107 94 97 69 91 78 135 87 40 13 20 37 36 146 105 57 50 103 155 110 35 7 28 28 42 49 55 60 61 63 64 65 63 64 59 56 49 42 38 36
189 191 185 187 180 184 182 180 176 177 178 179 169 156 163 154 145 143 156 159 160 168 183 182 184 174 178 175 103 114 124 106 99 106 118 122 116 122 118 114 102 88 83 104 121 94 71 70 34 121 91 70 138 84 43 19 50 42 59 116 176 164 153 187 93 91 22 48 45 47 50 53 58 62 60 61 58 59 55 61 57 56 48 43 40
200 182 179 184 182 179 181 180 179 180 177 174 168 164 162 169 174 178 177 182 179 210 191 171 168 171 141 144 146 96 121 126 102 110 109 113 115 113 113 110 106 101 96 97 83 91 88 76 71 75 77 91 80 100 98 348 352 34 20 25 60 81 117 133 128 134 94 13 28 40 45 49 57 60 59 55 55 55 50 51 53 53 50 44 43
186 170 180 178 182 182 179 184 183 180 180 169 175 177 172 176 178 182 184 185 190 191 182 169 151 140 137 151 137 131 111 129 131 110 117 122 121 111 113 109 107 101 103 92 107 106 91 67 76 97 85 86 105 128 122 39 125 309 350 39 52 70 75 104 100 143 134 125 84 50 53 50 58 55 56 57 53 54 54 48 48 47 45 41 41
170 181 183 187 185 180 180 180 184 180 180 174 175 185 179 179 181 180 189 204 184 166 143 139 148 150 138 152 142 156 138 124 134 134 124 128 125 127 119 115 113 112 113 104 90 89 96 100 86 82 94 84 106 143 123 143 135 170 145 57 65 80 76 83 119 105 133 126 107 111 103 68 65 48 49 55 57 59 60 59 55 50 47 41 36
189 186 186 172 177 172 179 181 190 185 178 176 180 185 184 176 178 183 185 176 148 134 149 155 159 161 157 170 165 163 167 146 141 136 125 131 128 125 124 125 129 131 120 128 123 105 105 105 118 125 128 113 116 127 134 148 139 147 158 160 115 96 68 60 62 105 66 43 142 152 148 128 91 44 43 50 51 50 52 54 57 52 50 45 37
180 179 183 184 180 178 182 186 193 183 176 179 179 187 185 181 183 183 181 172 168 156 153 165 161 166 174 180 178 179 173 170 157 148 142 147 133 133 132 134 135 135 135 136 137 135 133 125 125 115 114 124 129 116 105 103 111 94 73 86 127 145 161 168 174 175 137 124 113 118 107 105 113 103 46 60 59 54 54 52 57 59 59 56 51